Showing default

HULIANWANG DIGUI-11, 62971

Orbit data source: Space-Track

HULIANWANG DIGUI-11, 62971 is a payload satellite owned by Zhongguo Xingwang (CN) in LEO that was launched on Tue, 11 Feb 2025 UTC via a CHANG ZHENG 8A launch vehicle from the Wenchang Satellite Launch Center (WSC). Payload-class satellites include a variety of spacecraft equipped with specific instruments for various scientific and technological missions. These include communications satellites like Starlink; space stations such as the ISS; scientific satellites like the Hubble; Earth observation satellites from companies like Planet Labs, Umbra, and HawkEye 360; GPS; miniature CubeSats for education and research; and military/defense satellites.

Loading next visibility...
Identifier
62971, 2025-030A
Orbit
LEO
Last TLE update
12 hours ago
Origin
Manufacturer
CAST
Mission
Operational Civil Communications
Bus & Motor
HWHD, Unknown motor
Mass
~800 kg wet, ~800 kg dry
Launch date (UTC)
2025-02-11 (5 months ago)
Launch vehicle
CHANG ZHENG 8A
Launch site
Wenchang Satellite Launch Center (WSC)
Object type
Payload
Rocket body
Debris
Shape & HBR
Box + 2 Pan, 10 m
Radar Cross Section
5.935 m², Large (>1 m²)

Expand to show TLE details & history

TLE from 12 hours ago
0 HULIANWANG DIGUI-11
1 62971U 25030A   25181.92251412 -.00000086  00000-0  81430-4 0  9993
2 62971  50.0017  55.7347 0000418 140.8067 219.2835 13.29332122 19132
Epoch: 2025-06-30T22:08Z
TLE epoch observation values (Epoch: 2025-06-30T22:08:25.219Z)
Latitude
-0.00007°
Longitude
164.40419°
Altitude
1,150.033 km
Speed
7.279 km/s
True Right ascension
03h 42m 56s
True Declination
0° 00' 00"
Sunlit
Object was in daylight at epoch
Visualization orbit readout
Latitude
-45.71878°
Longitude
103.69782°
Altitude
1,164.832 km
Speed
7.271 km/s
Apparent Right ascension
04h 12m 42s
Apparent Declination
-77° 10' 56"
Sunlit
Object is in daylight
Visualization observer readout
Local Sidereal Time
22:03:58
Azimuth
163.375° S
Elevation
-39.21°
Doppler factor
1
Orbital elements
Apogee altitude
1,150.303 km
Perigee altitude
1,149.674 km
Semi-major axis
7,528.126 km
Eccentricity
0.00004
Inclination
50.0017°
RAAN
55.7347°
Arg. of periapsis
140.8067°
True anomaly
Unknown
Mean anomaly
219.2835°
Eccentric anomaly
Unknown
Mean motion
3.32287 °/min
Orbital period
108.34 mins
BSTAR
0.00008143
Loading maneuver chart data...
Loading SW <> Apogee altitude chart data...
Loading historical data...
Loading historical data...
Loading historical data...
Loading historical data...
Loading historical data...
Loading historical data...
Loading historical data...

HULIANWANG DIGUI-11 Visibility forecast

Observer location: undefined°, undefined°

Span
Click to sort rows by Start time (UTC) header in descending order
Start Az.
Max El. time (UTC)
Max El. Az.
Max El.
End time (UTC)
End Az.
7 mins2025-07-01 16:18:31.528Z154.141° SSE2025-07-01 16:22:31.528Z119.552° SE15.022°2025-07-01 16:25:31.528Z93.925° ESE
13 mins2025-07-01 18:08:31.528Z217.935° SW2025-07-01 18:14:31.528Z150.14° SSE42.311°2025-07-01 18:21:31.528Z60.179° ENE
12 mins2025-07-01 20:03:31.528Z270.913° WNW2025-07-01 20:08:31.528Z334.348° NNW37.591°2025-07-01 20:15:31.528Z53.896° ENE
11 mins2025-07-01 21:58:31.528Z303.05° NW2025-07-01 22:03:31.528Z359.572° N31.657°2025-07-01 22:09:31.528Z66.292° ENE
13 mins2025-07-01 23:52:31.528Z308.418° NW2025-07-01 23:58:31.528Z25.562° NE41.254°2025-07-02 00:05:31.528Z105.923° ESE
12 mins2025-07-02 01:46:31.528Z292.014° WNW2025-07-02 01:52:31.528Z216.342° SW36.088°2025-07-02 01:58:31.528Z155.859° SSE
|